Location: Usti nad Labem
(50.6670°N, 14.0330°E)
Time: 01:43:12
(UTC+02:00)

ISS - Pass Details

Date: 21 April 2025
Orbit: 416 x 420 km, 51.6° (Epoch: 16 May)

Event Time Altitude Azimuth Distance (km) Brightness Sun altitude
Exits shadow 05:14:53 - 205° (SSW) 1,919 -0.9 -7.0°
Reaches altitude 10° 05:16:08 10° 195° (SSW) 1,488 -1.4 -6.8°
Maximum altitude 05:18:45 21° 143° (SE) 987 -1.8 -6.4°
Drops below altitude 10° 05:21:23 10° 92° (E) 1,502 0.2 -6.0°
Sets 05:23:47 0° 76° (ENE) 2,365 2.1 -5.7°
